STARLINK-3782, 52273

Orbit data source: Space-Track

STARLINK-3782, 52273 is a payload satellite owned by SpaceX/Seattle (US) in LEO that was launched on Thu, 21 Apr 2022 UTC via an FALCON 9 launch vehicle from the Air Force Eastern Test Range (AFETR). Payload-class satellites include a variety of spacecraft equipped with specific instruments for various scientific and technological missions. These include communications satellites like Starlink; space stations such as the ISS; scientific satellites like the Hubble; Earth observation satellites from companies like Planet Labs, Umbra, and HawkEye 360; GPS; miniature CubeSats for education and research; and military/defense satellites.

Loading next visibility...
Identifier
52273, 2022-041N
Orbit
LEO
Country
Flag of USUS
Related business
Manufacturer
SpaceX/Seattle
Mission
Operational Commercial Communications
Bus & Motor
STARLINK, Unknown motor
Mass
297 kg wet, ~275 kg dry
Launch date (UTC)
2022-04-21 (4 years ago)
Launch vehicle
FALCON 9
Launch site
Air Force Eastern Test Range (AFETR)
Object type
Payload
Rocket body
Debris
Shape & HBR
Box + 1 Pan, 10.1 m
Radar Cross Section
11.087 m², Large (>1 m²)

Expand to show TLE details & history
Last TLE update: 12 hours ago

TLE from 12 hours ago
0 STARLINK-3782
1 52273U 22041N   26130.12576116  .00000983  00000-0  79813-4 0  9991
2 52273  53.2161 183.7060 0001178  91.8392 268.2735 15.08840867223774
Epoch: 2026-05-10T03:01Z
TLE epoch observation values (Epoch: 2026-05-10T03:01:05.764Z)
Latitude
-0.00002°
Longitude
-89.50135°
Altitude
540.663 km
Speed
7.593 km/s
True Right ascension
12h 14m 49s
True Declination
0° 00' 00"
Sunlit
Object was in full shadow at epoch
Visualization orbit readout
Latitude
Unknown
Longitude
Unknown
Altitude
Unknown
Speed
Unknown
Apparent Right ascension
Unknown
Apparent Declination
Unknown
Sunlit
N/A
Visualization observer readout
Local Sidereal Time
22:52:39
Azimuth
Unknown
Elevation
Unknown
Doppler factor
Unknown
Orbital elements
Apogee altitude
540.801 km
Perigee altitude
539.171 km
Semi-major axis
6,918.123 km
Eccentricity
0.00012
Inclination
53.2161°
RAAN
183.706°
Arg. of periapsis
91.8392°
True anomaly
268.26001°
Mean anomaly
268.2735°
Eccentric anomaly
268.26675°
Mean motion
3.77191 °/min
Orbital period
95.44 mins
BSTAR
0.000079813
Loading maneuver chart data...
Computing Atmospheric mass density...
Loading historical data...
Loading historical data...
Loading historical data...
Loading historical data...
Loading historical data...
Loading historical data...
Loading historical data...

Documentation

Showing up to 5 results
|